CCA4422 ZLXN-ZUUU

Flight info

Callsign CCA4422
Flight time 1h 21m
Altitude 37100
Route UPV18D UPVOP W111 BIGUX B330 MEXAD MEXAD9M
Aircraft A320/M-SDE3FGHIRWY/LB1

Departure

Time 2026-05-06 15:03
Airport Xining Caojiabao International Airport (ZLXN)

Arrival

Time 2026-05-06 16:24
Airport Chengdu Shuangliu International Airport (ZUUU)
Time Latitude Longitude Altitude Speed Heading
2026-05-06 14:34 36.52616 102.04203 7131 ft 0 kts 247°
2026-05-06 14:54 36.52621 102.04215 7160 ft 4 kts 247°
2026-05-06 14:55 36.52631 102.04246 7159 ft 4 kts 247°
2026-05-06 14:55 36.52641 102.04277 7163 ft 3 kts 247°
2026-05-06 14:55 36.52643 102.04281 7163 ft 0 kts 247°
2026-05-06 14:57 36.52643 102.04280 7163 ft 1 kts 255°
2026-05-06 14:57 36.52651 102.04275 7164 ft 2 kts 335°
2026-05-06 14:57 36.52665 102.04287 7163 ft 2 kts 30°
2026-05-06 14:57 36.52690 102.04254 7160 ft 14 kts 295°
2026-05-06 14:58 36.52727 102.04113 7167 ft 18 kts 289°
2026-05-06 14:58 36.52775 102.03937 7167 ft 22 kts 289°
2026-05-06 14:58 36.52825 102.03753 7167 ft 23 kts 289°
2026-05-06 14:58 36.52877 102.03566 7167 ft 23 kts 289°
2026-05-06 14:59 36.52936 102.03408 7167 ft 15 kts 340°
2026-05-06 14:59 36.53022 102.03373 7167 ft 16 kts 288°
2026-05-06 14:59 36.53059 102.03232 7167 ft 21 kts 289°
2026-05-06 14:59 36.53108 102.03056 7167 ft 22 kts 289°
2026-05-06 15:00 36.53159 102.02870 7168 ft 25 kts 289°
2026-05-06 15:00 36.53215 102.02668 7168 ft 25 kts 289°
2026-05-06 15:00 36.53272 102.02463 7168 ft 25 kts 289°
2026-05-06 15:00 36.53331 102.02255 7168 ft 26 kts 289°
2026-05-06 15:01 36.53389 102.02044 7168 ft 25 kts 289°
2026-05-06 15:01 36.53455 102.01907 7168 ft 15 kts 350°
2026-05-06 15:01 36.53549 102.01945 7171 ft 13 kts 26°
2026-05-06 15:01 36.53560 102.02050 7169 ft 13 kts 109°
2026-05-06 15:02 36.53518 102.02199 7170 ft 36 kts 108°
2026-05-06 15:02 36.53359 102.02775 7170 ft 103 kts 109°
2026-05-06 15:02 36.53065 102.03831 7168 ft 154 kts 109°
2026-05-06 15:02 36.52685 102.05220 7450 ft 173 kts 108°
2026-05-06 15:03 36.52303 102.06638 8162 ft 173 kts 108°
2026-05-06 15:03 36.51927 102.08079 8792 ft 181 kts 107°
2026-05-06 15:03 36.51524 102.09627 9000 ft 202 kts 108°
2026-05-06 15:03 36.51061 102.11393 9201 ft 227 kts 108°
2026-05-06 15:04 36.50544 102.13359 9637 ft 245 kts 108°
2026-05-06 15:04 36.49991 102.15461 10058 ft 263 kts 108°
2026-05-06 15:04 36.49431 102.17579 11072 ft 253 kts 108°
2026-05-06 15:04 36.49029 102.19733 11648 ft 266 kts 94°
2026-05-06 15:05 36.49097 102.22100 11895 ft 290 kts 84°
2026-05-06 15:05 36.49422 102.24680 12103 ft 314 kts 80°
2026-05-06 15:05 36.49843 102.27423 12491 ft 330 kts 80°
2026-05-06 15:05 36.50269 102.30262 13144 ft 337 kts 81°
2026-05-06 15:06 36.50661 102.33150 13844 ft 341 kts 82°
2026-05-06 15:06 36.51013 102.36080 14495 ft 345 kts 83°
2026-05-06 15:06 36.51338 102.39054 15102 ft 349 kts 83°
2026-05-06 15:06 36.51646 102.42063 15717 ft 353 kts 83°
2026-05-06 15:07 36.51949 102.45110 16327 ft 357 kts 83°
2026-05-06 15:07 36.52199 102.48197 16911 ft 361 kts 88°
2026-05-06 15:07 36.52007 102.51330 17491 ft 367 kts 100°
2026-05-06 15:07 36.51289 102.54392 18060 ft 373 kts 111°
2026-05-06 15:08 36.50049 102.57239 18614 ft 379 kts 124°
2026-05-06 15:08 36.48470 102.59889 19085 ft 384 kts 126°
2026-05-06 15:08 36.46941 102.62623 19539 ft 388 kts 119°
2026-05-06 15:08 36.45794 102.65674 19986 ft 392 kts 108°
2026-05-06 15:09 36.45120 102.68967 20423 ft 396 kts 98°
2026-05-06 15:09 36.44711 102.72377 20875 ft 401 kts 97°
2026-05-06 15:09 36.44294 102.75820 21318 ft 406 kts 98°
2026-05-06 15:09 36.43865 102.79309 21732 ft 412 kts 98°
2026-05-06 15:10 36.43424 102.82846 22126 ft 417 kts 98°
2026-05-06 15:10 36.42974 102.86426 22548 ft 422 kts 98°
2026-05-06 15:10 36.42481 102.90035 22944 ft 427 kts 99°
2026-05-06 15:10 36.41939 102.93683 23335 ft 432 kts 100°
2026-05-06 15:11 36.41366 102.97363 23747 ft 437 kts 101°
2026-05-06 15:11 36.40777 103.01085 24092 ft 441 kts 101°
2026-05-06 15:11 36.40185 103.04837 24441 ft 445 kts 101°
2026-05-06 15:11 36.39595 103.08616 24787 ft 448 kts 101°
2026-05-06 15:12 36.39019 103.12383 25136 ft 452 kts 101°
2026-05-06 15:12 36.38432 103.16281 25452 ft 456 kts 101°
2026-05-06 15:12 36.37848 103.20166 25778 ft 460 kts 101°
2026-05-06 15:12 36.37258 103.24076 26121 ft 463 kts 101°
2026-05-06 15:13 36.36666 103.27966 26439 ft 466 kts 101°
2026-05-06 15:13 36.36059 103.31934 26775 ft 470 kts 101°
2026-05-06 15:13 36.35445 103.35922 27108 ft 473 kts 102°
2026-05-06 15:13 36.34814 103.39993 27422 ft 476 kts 102°
2026-05-06 15:14 36.34183 103.44037 27759 ft 479 kts 102°
2026-05-06 15:14 36.33549 103.48100 28081 ft 482 kts 102°
2026-05-06 15:14 36.32918 103.52140 28376 ft 486 kts 102°
2026-05-06 15:14 36.32266 103.56326 28673 ft 489 kts 102°
2026-05-06 15:15 36.31629 103.60420 28969 ft 492 kts 102°
2026-05-06 15:15 36.30978 103.64598 29272 ft 495 kts 102°
2026-05-06 15:15 36.30322 103.68803 29581 ft 498 kts 102°
2026-05-06 15:15 36.29656 103.73034 29887 ft 501 kts 102°
2026-05-06 15:16 36.28983 103.77287 30174 ft 504 kts 103°
2026-05-06 15:16 36.28304 103.81557 30439 ft 507 kts 103°
2026-05-06 15:16 36.27622 103.85846 30670 ft 509 kts 103°
2026-05-06 15:16 36.26935 103.90166 30880 ft 512 kts 103°
2026-05-06 15:17 36.26244 103.94508 31101 ft 515 kts 103°
2026-05-06 15:17 36.25550 103.98864 31345 ft 517 kts 103°
2026-05-06 15:17 36.24849 104.03236 31581 ft 519 kts 103°
2026-05-06 15:17 36.24143 104.07627 31871 ft 519 kts 103°
2026-05-06 15:18 36.23439 104.12009 32215 ft 518 kts 104°
2026-05-06 15:18 36.22737 104.16381 32559 ft 518 kts 104°
2026-05-06 15:18 36.21941 104.20729 32872 ft 515 kts 112°
2026-05-06 15:18 36.21087 104.23439 33069 ft 509 kts 121°
2026-05-06 15:19 36.18498 104.28218 33508 ft 493 kts 140°
2026-05-06 15:19 36.15990 104.31003 33822 ft 478 kts 153°
2026-05-06 15:19 36.13164 104.33043 34170 ft 463 kts 165°
2026-05-06 15:19 36.10178 104.34313 34490 ft 448 kts 175°
2026-05-06 15:20 36.07144 104.34847 34815 ft 434 kts 186°
2026-05-06 15:20 36.05154 104.34896 34939 ft 432 kts 187°
2026-05-06 15:20 36.02153 104.34944 35254 ft 431 kts 187°
2026-05-06 15:20 35.99150 104.34989 35515 ft 431 kts 188°
2026-05-06 15:21 35.96154 104.35034 35755 ft 431 kts 188°
2026-05-06 15:21 35.92142 104.35100 36093 ft 431 kts 188°
2026-05-06 15:21 35.90157 104.35135 36256 ft 430 kts 188°
2026-05-06 15:21 35.87166 104.35184 36461 ft 431 kts 188°
2026-05-06 15:22 35.83190 104.35246 36678 ft 432 kts 188°
2026-05-06 15:22 35.81160 104.35278 36800 ft 432 kts 188°
2026-05-06 15:22 35.78149 104.35323 37013 ft 433 kts 188°
2026-05-06 15:22 35.75139 104.35370 37228 ft 433 kts 188°
2026-05-06 15:23 35.72130 104.35419 37359 ft 433 kts 188°
2026-05-06 15:23 35.66166 104.35520 37388 ft 430 kts 188°
2026-05-06 15:24 35.60184 104.35617 37378 ft 430 kts 188°
2026-05-06 15:24 35.54203 104.35720 37381 ft 430 kts 188°
2026-05-06 15:25 35.48221 104.35814 37381 ft 430 kts 188°
2026-05-06 15:25 35.42235 104.35906 37387 ft 430 kts 188°
2026-05-06 15:26 35.36250 104.35995 37334 ft 430 kts 188°
2026-05-06 15:26 35.30264 104.36083 37347 ft 430 kts 188°
2026-05-06 15:27 35.24278 104.36181 37352 ft 431 kts 188°
2026-05-06 15:27 35.18287 104.36291 37352 ft 430 kts 188°
2026-05-06 15:28 35.12300 104.36391 37329 ft 430 kts 187°
2026-05-06 15:28 35.06319 104.36480 37340 ft 430 kts 187°
2026-05-06 15:29 35.00334 104.36579 37347 ft 430 kts 187°
2026-05-06 15:29 34.94350 104.36674 37356 ft 430 kts 187°
2026-05-06 15:30 34.88370 104.36760 37322 ft 430 kts 187°
2026-05-06 15:30 34.82391 104.36851 37352 ft 429 kts 187°
2026-05-06 15:31 34.76425 104.36954 37357 ft 428 kts 187°
2026-05-06 15:31 34.70468 104.37050 37358 ft 428 kts 187°
2026-05-06 15:32 34.61534 104.37196 37345 ft 428 kts 187°
2026-05-06 15:32 34.55626 104.37285 37347 ft 427 kts 187°
2026-05-06 15:33 34.49686 104.37376 37353 ft 427 kts 187°
2026-05-06 15:33 34.43752 104.37464 37352 ft 427 kts 187°
2026-05-06 15:34 34.37812 104.37560 37326 ft 427 kts 187°
2026-05-06 15:34 34.31873 104.37649 37340 ft 427 kts 187°
2026-05-06 15:35 34.25928 104.37740 37344 ft 427 kts 187°
2026-05-06 15:35 34.19983 104.37845 37348 ft 427 kts 187°
2026-05-06 15:36 34.14044 104.37939 37333 ft 426 kts 187°
2026-05-06 15:36 34.08114 104.38020 37297 ft 425 kts 187°
2026-05-06 15:37 34.02209 104.38097 37307 ft 426 kts 187°
2026-05-06 15:37 33.96284 104.38195 37304 ft 427 kts 186°
2026-05-06 15:38 33.90367 104.38289 37309 ft 425 kts 187°
2026-05-06 15:38 33.84443 104.38381 37296 ft 427 kts 186°
2026-05-06 15:39 33.78501 104.38484 37305 ft 427 kts 186°
2026-05-06 15:39 33.72609 104.38576 37307 ft 426 kts 186°
2026-05-06 15:40 33.66682 104.38653 37310 ft 426 kts 186°
2026-05-06 15:40 33.60738 104.39377 37287 ft 438 kts 171°
2026-05-06 15:41 33.57857 104.40643 37283 ft 446 kts 160°
2026-05-06 15:41 33.55135 104.42494 37281 ft 452 kts 155°
2026-05-06 15:41 33.49748 104.46383 37284 ft 452 kts 155°
2026-05-06 15:42 33.44356 104.50227 37267 ft 451 kts 155°
2026-05-06 15:42 33.38855 104.53735 37249 ft 442 kts 166°
2026-05-06 15:43 33.32961 104.55217 37219 ft 427 kts 183°
2026-05-06 15:43 33.27022 104.55569 37237 ft 429 kts 183°
2026-05-06 15:44 33.21057 104.55950 37251 ft 430 kts 183°
2026-05-06 15:44 33.15090 104.56339 37257 ft 430 kts 183°
2026-05-06 15:45 33.09112 104.56724 37254 ft 430 kts 183°
2026-05-06 15:45 33.03133 104.57107 37265 ft 430 kts 183°
2026-05-06 15:46 32.97157 104.57488 37265 ft 430 kts 183°
2026-05-06 15:46 32.91190 104.57860 37264 ft 430 kts 183°
2026-05-06 15:47 32.85220 104.58234 37259 ft 429 kts 183°
2026-05-06 15:47 32.79269 104.58608 37241 ft 428 kts 183°
2026-05-06 15:48 32.73349 104.58969 37244 ft 429 kts 184°
2026-05-06 15:48 32.67401 104.59237 37231 ft 427 kts 184°
2026-05-06 15:49 32.61477 104.59474 37208 ft 426 kts 184°
2026-05-06 15:49 32.55541 104.59720 37178 ft 427 kts 184°
2026-05-06 15:50 32.49587 104.59999 37161 ft 429 kts 184°
2026-05-06 15:50 32.43606 104.60277 37183 ft 431 kts 184°
2026-05-06 15:51 32.37605 104.60562 37160 ft 431 kts 184°
2026-05-06 15:51 32.31599 104.60892 36934 ft 434 kts 184°
2026-05-06 15:52 32.28585 104.61066 36423 ft 433 kts 183°
2026-05-06 15:52 32.25574 104.61240 35856 ft 433 kts 183°
2026-05-06 15:52 32.22569 104.61411 35276 ft 432 kts 182°
2026-05-06 15:52 32.19566 104.61581 34708 ft 431 kts 182°
2026-05-06 15:53 32.16575 104.61742 34146 ft 430 kts 182°
2026-05-06 15:53 32.13602 104.61899 33532 ft 427 kts 182°
2026-05-06 15:53 32.10637 104.62058 32916 ft 426 kts 182°
2026-05-06 15:53 32.07682 104.62217 32305 ft 425 kts 182°
2026-05-06 15:54 32.04737 104.62375 31719 ft 423 kts 181°
2026-05-06 15:54 32.01797 104.62536 31126 ft 422 kts 181°
2026-05-06 15:54 31.98867 104.62696 30559 ft 422 kts 181°
2026-05-06 15:54 31.95935 104.62855 29979 ft 421 kts 181°
2026-05-06 15:55 31.93058 104.63012 29339 ft 419 kts 181°
2026-05-06 15:55 31.90152 104.63169 28710 ft 418 kts 181°
2026-05-06 15:55 31.87254 104.63327 28077 ft 416 kts 180°
2026-05-06 15:55 31.84377 104.63484 27469 ft 412 kts 180°
2026-05-06 15:56 31.81529 104.63641 26879 ft 409 kts 180°
2026-05-06 15:56 31.78691 104.63796 26300 ft 407 kts 180°
2026-05-06 15:56 31.75875 104.63955 25716 ft 404 kts 180°
2026-05-06 15:56 31.73074 104.64124 25160 ft 402 kts 180°
2026-05-06 15:57 31.70286 104.64298 24611 ft 400 kts 180°
2026-05-06 15:57 31.67514 104.64474 24129 ft 397 kts 179°
2026-05-06 15:57 31.64784 104.64649 23738 ft 390 kts 179°
2026-05-06 15:57 31.62092 104.64820 23323 ft 384 kts 179°
2026-05-06 15:58 31.59443 104.64990 22879 ft 379 kts 179°
2026-05-06 15:58 31.56825 104.65154 22440 ft 375 kts 179°
2026-05-06 15:58 31.54236 104.65314 22005 ft 371 kts 179°
2026-05-06 15:58 31.51673 104.65474 21580 ft 367 kts 179°
2026-05-06 15:59 31.49134 104.65634 21157 ft 364 kts 179°
2026-05-06 15:59 31.46621 104.65792 20746 ft 360 kts 179°
2026-05-06 15:59 31.44129 104.65950 20337 ft 357 kts 179°
2026-05-06 15:59 31.41658 104.66106 19936 ft 354 kts 179°
2026-05-06 16:00 31.39207 104.66254 19540 ft 351 kts 179°
2026-05-06 16:00 31.36771 104.66337 19151 ft 348 kts 180°
2026-05-06 16:00 31.34359 104.66367 18770 ft 346 kts 181°
2026-05-06 16:00 31.31959 104.66375 18388 ft 343 kts 181°
2026-05-06 16:01 31.29578 104.66379 17958 ft 341 kts 180°
2026-05-06 16:01 31.27209 104.66388 17516 ft 340 kts 180°
2026-05-06 16:01 31.24850 104.66384 17084 ft 338 kts 184°
2026-05-06 16:01 31.22550 104.65878 16649 ft 336 kts 199°
2026-05-06 16:02 31.20401 104.64838 16235 ft 334 kts 204°
2026-05-06 16:02 31.18264 104.63766 15830 ft 334 kts 203°
2026-05-06 16:02 31.16127 104.62700 15422 ft 333 kts 203°
2026-05-06 16:02 31.13995 104.61641 15020 ft 333 kts 203°
2026-05-06 16:03 31.11862 104.60583 14624 ft 333 kts 203°
2026-05-06 16:03 31.09727 104.59527 14222 ft 333 kts 203°
2026-05-06 16:03 31.07598 104.58469 13838 ft 333 kts 203°
2026-05-06 16:03 31.05465 104.57409 13402 ft 333 kts 203°
2026-05-06 16:04 31.03333 104.56349 12970 ft 333 kts 202°
2026-05-06 16:04 31.01197 104.55287 12526 ft 334 kts 202°
2026-05-06 16:04 30.99063 104.54226 12095 ft 334 kts 202°
2026-05-06 16:04 30.96921 104.53163 11680 ft 335 kts 202°
2026-05-06 16:05 30.94778 104.52101 11264 ft 335 kts 202°
2026-05-06 16:05 30.92632 104.51037 10852 ft 335 kts 202°
2026-05-06 16:05 30.90488 104.49974 10457 ft 336 kts 201°
2026-05-06 16:05 30.88334 104.48909 10060 ft 336 kts 201°
2026-05-06 16:06 30.86183 104.47849 9645 ft 335 kts 201°
2026-05-06 16:06 30.84069 104.46803 9497 ft 327 kts 201°
2026-05-06 16:06 30.81986 104.45771 9369 ft 324 kts 201°
2026-05-06 16:06 30.79913 104.44745 9237 ft 324 kts 201°
2026-05-06 16:07 30.77866 104.43731 9111 ft 324 kts 201°
2026-05-06 16:07 30.75794 104.42706 8978 ft 324 kts 201°
2026-05-06 16:07 30.73728 104.41687 8854 ft 321 kts 201°
2026-05-06 16:07 30.71676 104.40675 8726 ft 319 kts 201°
2026-05-06 16:08 30.69628 104.39664 8600 ft 322 kts 201°
2026-05-06 16:08 30.67561 104.38646 8470 ft 323 kts 200°
2026-05-06 16:08 30.65493 104.37629 8343 ft 323 kts 201°
2026-05-06 16:08 30.63419 104.36610 8218 ft 323 kts 200°
2026-05-06 16:09 30.61349 104.35594 8110 ft 323 kts 201°
2026-05-06 16:09 30.59279 104.34575 7982 ft 323 kts 201°
2026-05-06 16:09 30.57216 104.33557 7861 ft 322 kts 201°
2026-05-06 16:09 30.55169 104.32547 7738 ft 321 kts 201°
2026-05-06 16:10 30.53828 104.31746 7659 ft 322 kts 212°
2026-05-06 16:10 30.52144 104.30106 7531 ft 320 kts 229°
2026-05-06 16:10 30.50591 104.27193 7359 ft 315 kts 251°
2026-05-06 16:10 30.50031 104.25654 7278 ft 316 kts 251°
2026-05-06 16:11 30.48881 104.22515 7123 ft 316 kts 251°
2026-05-06 16:11 30.48020 104.20179 6993 ft 313 kts 249°
2026-05-06 16:11 30.47452 104.18646 6913 ft 312 kts 249°
2026-05-06 16:11 30.46602 104.16345 6807 ft 310 kts 250°
2026-05-06 16:12 30.45752 104.14049 6667 ft 310 kts 249°
2026-05-06 16:12 30.44903 104.11758 6561 ft 309 kts 249°
2026-05-06 16:12 30.44054 104.09472 6436 ft 309 kts 249°
2026-05-06 16:12 30.43205 104.07187 6318 ft 309 kts 249°
2026-05-06 16:13 30.42357 104.04905 6220 ft 308 kts 249°
2026-05-06 16:13 30.41341 104.02722 6099 ft 308 kts 235°
2026-05-06 16:13 30.39891 104.00910 5967 ft 307 kts 219°
2026-05-06 16:13 30.38105 103.99590 5839 ft 304 kts 202°
2026-05-06 16:14 30.36154 103.98672 5714 ft 303 kts 199°
2026-05-06 16:14 30.34197 103.97769 5588 ft 302 kts 199°
2026-05-06 16:14 30.32253 103.96866 5463 ft 300 kts 200°
2026-05-06 16:14 30.30325 103.95967 5338 ft 297 kts 200°
2026-05-06 16:15 30.28442 103.95087 5207 ft 286 kts 200°
2026-05-06 16:15 30.26661 103.94255 5080 ft 274 kts 200°
2026-05-06 16:15 30.24929 103.93448 4956 ft 263 kts 199°
2026-05-06 16:15 30.23267 103.92661 4805 ft 255 kts 204°
2026-05-06 16:16 30.21878 103.91454 4681 ft 246 kts 232°
2026-05-06 16:16 30.21081 103.89803 4612 ft 228 kts 258°
2026-05-06 16:16 30.20910 103.88060 4561 ft 212 kts 281°
2026-05-06 16:16 30.21286 103.86447 4519 ft 205 kts 302°
2026-05-06 16:17 30.22101 103.85145 4450 ft 199 kts 321°
2026-05-06 16:17 30.23188 103.84153 4426 ft 201 kts 326°
2026-05-06 16:17 30.24337 103.83214 4376 ft 202 kts 335°
2026-05-06 16:17 30.25636 103.82630 4333 ft 200 kts 350°
2026-05-06 16:18 30.27005 103.82471 4282 ft 197 kts
2026-05-06 16:18 30.28335 103.82798 4246 ft 195 kts 19°
2026-05-06 16:18 30.29613 103.83325 4210 ft 194 kts 23°
2026-05-06 16:18 30.30872 103.83894 4169 ft 194 kts 23°
2026-05-06 16:19 30.32123 103.84470 4129 ft 193 kts 23°
2026-05-06 16:19 30.33369 103.85047 4089 ft 193 kts 24°
2026-05-06 16:19 30.34622 103.85627 4054 ft 194 kts 24°
2026-05-06 16:19 30.35861 103.86200 4023 ft 191 kts 22°
2026-05-06 16:20 30.37049 103.86751 4004 ft 175 kts 22°
2026-05-06 16:20 30.38134 103.87254 3951 ft 161 kts 21°
2026-05-06 16:20 30.39137 103.87718 3899 ft 151 kts 21°
2026-05-06 16:20 30.40093 103.88162 3924 ft 148 kts 21°
2026-05-06 16:21 30.41082 103.88620 3862 ft 151 kts 22°
2026-05-06 16:21 30.42041 103.89065 3722 ft 147 kts 20°
2026-05-06 16:21 30.42992 103.89506 3546 ft 148 kts 19°
2026-05-06 16:21 30.43945 103.89948 3377 ft 147 kts 18°
2026-05-06 16:22 30.44880 103.90383 3211 ft 145 kts 18°
2026-05-06 16:22 30.45812 103.90815 3012 ft 143 kts 19°
2026-05-06 16:22 30.46730 103.91241 2830 ft 141 kts 17°
2026-05-06 16:22 30.47633 103.91661 2638 ft 140 kts 17°
2026-05-06 16:23 30.48546 103.92088 2439 ft 142 kts 16°
2026-05-06 16:23 30.49457 103.92515 2212 ft 141 kts 18°
2026-05-06 16:23 30.50370 103.92947 2021 ft 142 kts 19°
2026-05-06 16:23 30.51288 103.93365 1847 ft 140 kts 19°
2026-05-06 16:24 30.52211 103.93791 1694 ft 143 kts 19°
2026-05-06 16:24 30.53056 103.94182 1663 ft 111 kts 23°
2026-05-06 16:24 30.53613 103.94437 1660 ft 62 kts 22°
2026-05-06 16:24 30.53913 103.94583 1652 ft 42 kts 22°
2026-05-06 16:25 30.54124 103.94624 1649 ft 23 kts 352°
2026-05-06 16:25 30.54288 103.94596 1647 ft 25 kts 351°
2026-05-06 16:25 30.54455 103.94603 1647 ft 24 kts 28°
2026-05-06 16:25 30.54609 103.94682 1647 ft 25 kts 20°
2026-05-06 16:26 30.54747 103.94741 1647 ft 9 kts 20°
2026-05-06 16:26 30.54808 103.94768 1647 ft 9 kts 22°
2026-05-06 16:26 30.54902 103.94815 1646 ft 23 kts 22°
2026-05-06 16:26 30.55022 103.94825 1647 ft 15 kts 311°
2026-05-06 16:27 30.55115 103.94804 1647 ft 16 kts 22°
2026-05-06 16:27 30.55225 103.94857 1647 ft 19 kts 22°
2026-05-06 16:27 30.55384 103.94929 1647 ft 27 kts 22°
2026-05-06 16:27 30.55560 103.95010 1647 ft 27 kts 21°
2026-05-06 16:28 30.55709 103.95076 1642 ft 20 kts 21°
2026-05-06 16:28 30.55832 103.95134 1647 ft 18 kts 22°
2026-05-06 16:28 30.55956 103.95193 1647 ft 22 kts 21°
2026-05-06 16:28 30.56109 103.95257 1647 ft 24 kts 19°
2026-05-06 16:29 30.56263 103.95324 1647 ft 23 kts 21°
2026-05-06 16:29 30.56406 103.95394 1647 ft 23 kts 22°
2026-05-06 16:29 30.56555 103.95463 1647 ft 23 kts 22°
2026-05-06 16:29 30.56673 103.95463 1647 ft 17 kts 310°
2026-05-06 16:30 30.56722 103.95337 1647 ft 18 kts 292°
2026-05-06 16:30 30.56753 103.95247 1647 ft 18 kts 292°
2026-05-06 16:30 30.56823 103.95055 1647 ft 20 kts 293°
2026-05-06 16:30 30.56863 103.94940 1647 ft 12 kts 295°
2026-05-06 16:31 30.56913 103.94933 1647 ft 6 kts 18°
2026-05-06 16:31 30.56932 103.94941 1647 ft 1 kts 19°
2026-05-06 16:31 30.56935 103.94942 1647 ft 0 kts 19°